Index of /20260411/WXO-DD/model_gdps/15km/12/027
Name Last modified Size Description
Parent Directory -
20260411T12Z_MSC_GDPS_AbsoluteVorticity_IsbL-0200_LatLon0.15_PT027H.grib2 2026-04-11 16:16 1.2M
20260411T12Z_MSC_GDPS_AbsoluteVorticity_IsbL-0250_LatLon0.15_PT027H.grib2 2026-04-11 16:16 1.3M
20260411T12Z_MSC_GDPS_AbsoluteVorticity_IsbL-0500_LatLon0.15_PT027H.grib2 2026-04-11 16:16 1.5M
20260411T12Z_MSC_GDPS_AbsoluteVorticity_IsbL-0700_LatLon0.15_PT027H.grib2 2026-04-11 16:16 1.3M
20260411T12Z_MSC_GDPS_AbsoluteVorticity_IsbL-0850_LatLon0.15_PT027H.grib2 2026-04-11 16:16 1.6M
20260411T12Z_MSC_GDPS_AirTemp_AGL-120m_LatLon0.15_PT027H.grib2 2026-04-11 16:16 903K
20260411T12Z_MSC_GDPS_AirTemp_AGL-2m_LatLon0.15_PT027H.grib2 2026-04-11 16:16 1.0M
20260411T12Z_MSC_GDPS_AirTemp_AGL-40m_LatLon0.15_PT027H.grib2 2026-04-11 16:16 923K
20260411T12Z_MSC_GDPS_AirTemp_AGL-80m_LatLon0.15_PT027H.grib2 2026-04-11 16:16 913K
20260411T12Z_MSC_GDPS_AirTemp_IsbL-0001_LatLon0.15_PT027H.grib2 2026-04-11 16:16 706K
20260411T12Z_MSC_GDPS_AirTemp_IsbL-0005_LatLon0.15_PT027H.grib2 2026-04-11 16:16 683K
20260411T12Z_MSC_GDPS_AirTemp_IsbL-0010_LatLon0.15_PT027H.grib2 2026-04-11 16:16 761K
20260411T12Z_MSC_GDPS_AirTemp_IsbL-0020_LatLon0.15_PT027H.grib2 2026-04-11 16:16 708K
20260411T12Z_MSC_GDPS_AirTemp_IsbL-0030_LatLon0.15_PT027H.grib2 2026-04-11 16:16 755K
20260411T12Z_MSC_GDPS_AirTemp_IsbL-0050_LatLon0.15_PT027H.grib2 2026-04-11 16:16 818K
20260411T12Z_MSC_GDPS_AirTemp_IsbL-0100_LatLon0.15_PT027H.grib2 2026-04-11 16:16 949K
20260411T12Z_MSC_GDPS_AirTemp_IsbL-0150_LatLon0.15_PT027H.grib2 2026-04-11 16:16 972K
20260411T12Z_MSC_GDPS_AirTemp_IsbL-0175_LatLon0.15_PT027H.grib2 2026-04-11 16:16 962K
20260411T12Z_MSC_GDPS_AirTemp_IsbL-0200_LatLon0.15_PT027H.grib2 2026-04-11 16:16 973K
20260411T12Z_MSC_GDPS_AirTemp_IsbL-0225_LatLon0.15_PT027H.grib2 2026-04-11 16:16 1.0M
20260411T12Z_MSC_GDPS_AirTemp_IsbL-0250_LatLon0.15_PT027H.grib2 2026-04-11 16:16 1.0M
20260411T12Z_MSC_GDPS_AirTemp_IsbL-0275_LatLon0.15_PT027H.grib2 2026-04-11 16:16 1.0M
20260411T12Z_MSC_GDPS_AirTemp_IsbL-0300_LatLon0.15_PT027H.grib2 2026-04-11 16:16 1.0M
20260411T12Z_MSC_GDPS_AirTemp_IsbL-0350_LatLon0.15_PT027H.grib2 2026-04-11 16:16 934K
20260411T12Z_MSC_GDPS_AirTemp_IsbL-0400_LatLon0.15_PT027H.grib2 2026-04-11 16:16 947K
20260411T12Z_MSC_GDPS_AirTemp_IsbL-0450_LatLon0.15_PT027H.grib2 2026-04-11 16:16 969K
20260411T12Z_MSC_GDPS_AirTemp_IsbL-0500_LatLon0.15_PT027H.grib2 2026-04-11 16:16 1.0M
20260411T12Z_MSC_GDPS_AirTemp_IsbL-0550_LatLon0.15_PT027H.grib2 2026-04-11 16:16 1.0M
20260411T12Z_MSC_GDPS_AirTemp_IsbL-0600_LatLon0.15_PT027H.grib2 2026-04-11 16:16 899K
20260411T12Z_MSC_GDPS_AirTemp_IsbL-0650_LatLon0.15_PT027H.grib2 2026-04-11 16:16 923K
20260411T12Z_MSC_GDPS_AirTemp_IsbL-0700_LatLon0.15_PT027H.grib2 2026-04-11 16:16 957K
20260411T12Z_MSC_GDPS_AirTemp_IsbL-0750_LatLon0.15_PT027H.grib2 2026-04-11 16:16 1.0M
20260411T12Z_MSC_GDPS_AirTemp_IsbL-0800_LatLon0.15_PT027H.grib2 2026-04-11 16:16 1.1M
20260411T12Z_MSC_GDPS_AirTemp_IsbL-0850_LatLon0.15_PT027H.grib2 2026-04-11 16:16 1.1M
20260411T12Z_MSC_GDPS_AirTemp_IsbL-0875_LatLon0.15_PT027H.grib2 2026-04-11 16:16 1.1M
20260411T12Z_MSC_GDPS_AirTemp_IsbL-0900_LatLon0.15_PT027H.grib2 2026-04-11 16:16 1.1M
20260411T12Z_MSC_GDPS_AirTemp_IsbL-0925_LatLon0.15_PT027H.grib2 2026-04-11 16:16 1.1M
20260411T12Z_MSC_GDPS_AirTemp_IsbL-0950_LatLon0.15_PT027H.grib2 2026-04-11 16:16 1.1M
20260411T12Z_MSC_GDPS_AirTemp_IsbL-0970_LatLon0.15_PT027H.grib2 2026-04-11 16:16 1.1M
20260411T12Z_MSC_GDPS_AirTemp_IsbL-0985_LatLon0.15_PT027H.grib2 2026-04-11 16:16 1.1M
20260411T12Z_MSC_GDPS_AirTemp_IsbL-1000_LatLon0.15_PT027H.grib2 2026-04-11 16:16 1.1M
20260411T12Z_MSC_GDPS_AirTemp_IsbL-1015_LatLon0.15_PT027H.grib2 2026-04-11 16:16 1.1M
20260411T12Z_MSC_GDPS_Albedo_Sfc_LatLon0.15_PT027H.grib2 2026-04-11 16:16 248K
20260411T12Z_MSC_GDPS_CAPE_Sfc_LatLon0.15_PT027H.grib2 2026-04-11 16:16 3.7M
20260411T12Z_MSC_GDPS_CIN_Sfc_LatLon0.15_PT027H.grib2 2026-04-11 16:16 2.9M
20260411T12Z_MSC_GDPS_CloudWater_EAtm_LatLon0.15_PT027H.grib2 2026-04-11 16:16 529K
20260411T12Z_MSC_GDPS_ConvectivePrecip-Accum_Sfc_LatLon0.15_PT027H.grib2 2026-04-11 16:16 2.3M
20260411T12Z_MSC_GDPS_DewPointDepression_AGL-2m_LatLon0.15_PT027H.grib2 2026-04-11 16:16 748K
20260411T12Z_MSC_GDPS_DewPointDepression_IsbL-0010_LatLon0.15_PT027H.grib2 2026-04-11 16:16 2.0K
20260411T12Z_MSC_GDPS_DewPointDepression_IsbL-0020_LatLon0.15_PT027H.grib2 2026-04-11 16:16 47K
20260411T12Z_MSC_GDPS_DewPointDepression_IsbL-0030_LatLon0.15_PT027H.grib2 2026-04-11 16:16 65K
20260411T12Z_MSC_GDPS_DewPointDepression_IsbL-0050_LatLon0.15_PT027H.grib2 2026-04-11 16:16 351K
20260411T12Z_MSC_GDPS_DewPointDepression_IsbL-0100_LatLon0.15_PT027H.grib2 2026-04-11 16:16 372K
20260411T12Z_MSC_GDPS_DewPointDepression_IsbL-0150_LatLon0.15_PT027H.grib2 2026-04-11 16:16 441K
20260411T12Z_MSC_GDPS_DewPointDepression_IsbL-0175_LatLon0.15_PT027H.grib2 2026-04-11 16:16 510K
20260411T12Z_MSC_GDPS_DewPointDepression_IsbL-0200_LatLon0.15_PT027H.grib2 2026-04-11 16:16 619K
20260411T12Z_MSC_GDPS_DewPointDepression_IsbL-0225_LatLon0.15_PT027H.grib2 2026-04-11 16:16 752K
20260411T12Z_MSC_GDPS_DewPointDepression_IsbL-0250_LatLon0.15_PT027H.grib2 2026-04-11 16:16 863K
20260411T12Z_MSC_GDPS_DewPointDepression_IsbL-0275_LatLon0.15_PT027H.grib2 2026-04-11 16:16 892K
20260411T12Z_MSC_GDPS_DewPointDepression_IsbL-0300_LatLon0.15_PT027H.grib2 2026-04-11 16:16 936K
20260411T12Z_MSC_GDPS_DewPointDepression_IsbL-0350_LatLon0.15_PT027H.grib2 2026-04-11 16:16 957K
20260411T12Z_MSC_GDPS_DewPointDepression_IsbL-0400_LatLon0.15_PT027H.grib2 2026-04-11 16:16 1.0M
20260411T12Z_MSC_GDPS_DewPointDepression_IsbL-0450_LatLon0.15_PT027H.grib2 2026-04-11 16:16 1.0M
20260411T12Z_MSC_GDPS_DewPointDepression_IsbL-0500_LatLon0.15_PT027H.grib2 2026-04-11 16:16 1.0M
20260411T12Z_MSC_GDPS_DewPointDepression_IsbL-0550_LatLon0.15_PT027H.grib2 2026-04-11 16:16 1.0M
20260411T12Z_MSC_GDPS_DewPointDepression_IsbL-0600_LatLon0.15_PT027H.grib2 2026-04-11 16:16 1.0M
20260411T12Z_MSC_GDPS_DewPointDepression_IsbL-0650_LatLon0.15_PT027H.grib2 2026-04-11 16:16 1.0M
20260411T12Z_MSC_GDPS_DewPointDepression_IsbL-0700_LatLon0.15_PT027H.grib2 2026-04-11 16:16 1.1M
20260411T12Z_MSC_GDPS_DewPointDepression_IsbL-0750_LatLon0.15_PT027H.grib2 2026-04-11 16:16 1.1M
20260411T12Z_MSC_GDPS_DewPointDepression_IsbL-0800_LatLon0.15_PT027H.grib2 2026-04-11 16:16 1.2M
20260411T12Z_MSC_GDPS_DewPointDepression_IsbL-0850_LatLon0.15_PT027H.grib2 2026-04-11 16:16 1.2M
20260411T12Z_MSC_GDPS_DewPointDepression_IsbL-0875_LatLon0.15_PT027H.grib2 2026-04-11 16:16 1.1M
20260411T12Z_MSC_GDPS_DewPointDepression_IsbL-0900_LatLon0.15_PT027H.grib2 2026-04-11 16:16 1.1M
20260411T12Z_MSC_GDPS_DewPointDepression_IsbL-0925_LatLon0.15_PT027H.grib2 2026-04-11 16:16 1.0M
20260411T12Z_MSC_GDPS_DewPointDepression_IsbL-0950_LatLon0.15_PT027H.grib2 2026-04-11 16:16 1.0M
20260411T12Z_MSC_GDPS_DewPointDepression_IsbL-0970_LatLon0.15_PT027H.grib2 2026-04-11 16:16 1.0M
20260411T12Z_MSC_GDPS_DewPointDepression_IsbL-0985_LatLon0.15_PT027H.grib2 2026-04-11 16:16 1.0M
20260411T12Z_MSC_GDPS_DewPointDepression_IsbL-1000_LatLon0.15_PT027H.grib2 2026-04-11 16:16 969K
20260411T12Z_MSC_GDPS_DewPointDepression_IsbL-1015_LatLon0.15_PT027H.grib2 2026-04-11 16:16 908K
20260411T12Z_MSC_GDPS_DewPoint_AGL-2m_LatLon0.15_PT027H.grib2 2026-04-11 16:16 612K
20260411T12Z_MSC_GDPS_DownwardLongwaveRadiationFlux-Accum_Sfc_LatLon0.15_PT027H.grib2 2026-04-11 16:16 1.0M
20260411T12Z_MSC_GDPS_DownwardShortwaveRadiationFlux-Accum_NTAtm_LatLon0.15_PT027H.grib2 2026-04-11 16:16 206K
20260411T12Z_MSC_GDPS_DownwardShortwaveRadiationFlux-Accum_Sfc_LatLon0.15_PT027H.grib2 2026-04-11 16:16 1.2M
20260411T12Z_MSC_GDPS_FreezingRain-Accum1h_Sfc_LatLon0.15_PT027H.grib2 2026-04-11 16:16 23K
20260411T12Z_MSC_GDPS_FreezingRain-Accum3h_Sfc_LatLon0.15_PT027H.grib2 2026-04-11 16:16 30K
20260411T12Z_MSC_GDPS_FreezingRain-Accum_Sfc_LatLon0.15_PT027H.grib2 2026-04-11 16:16 143K
20260411T12Z_MSC_GDPS_GeopotentialHeight_IsbL-0001_LatLon0.15_PT027H.grib2 2026-04-11 16:16 535K
20260411T12Z_MSC_GDPS_GeopotentialHeight_IsbL-0005_LatLon0.15_PT027H.grib2 2026-04-11 16:16 441K
20260411T12Z_MSC_GDPS_GeopotentialHeight_IsbL-0010_LatLon0.15_PT027H.grib2 2026-04-11 16:16 580K
20260411T12Z_MSC_GDPS_GeopotentialHeight_IsbL-0020_LatLon0.15_PT027H.grib2 2026-04-11 16:16 581K
20260411T12Z_MSC_GDPS_GeopotentialHeight_IsbL-0030_LatLon0.15_PT027H.grib2 2026-04-11 16:16 586K
20260411T12Z_MSC_GDPS_GeopotentialHeight_IsbL-0050_LatLon0.15_PT027H.grib2 2026-04-11 16:16 515K
20260411T12Z_MSC_GDPS_GeopotentialHeight_IsbL-0100_LatLon0.15_PT027H.grib2 2026-04-11 16:16 621K
20260411T12Z_MSC_GDPS_GeopotentialHeight_IsbL-0150_LatLon0.15_PT027H.grib2 2026-04-11 16:16 638K
20260411T12Z_MSC_GDPS_GeopotentialHeight_IsbL-0175_LatLon0.15_PT027H.grib2 2026-04-11 16:16 641K
20260411T12Z_MSC_GDPS_GeopotentialHeight_IsbL-0200_LatLon0.15_PT027H.grib2 2026-04-11 16:16 644K
20260411T12Z_MSC_GDPS_GeopotentialHeight_IsbL-0225_LatLon0.15_PT027H.grib2 2026-04-11 16:16 647K
20260411T12Z_MSC_GDPS_GeopotentialHeight_IsbL-0250_LatLon0.15_PT027H.grib2 2026-04-11 16:16 650K
20260411T12Z_MSC_GDPS_GeopotentialHeight_IsbL-0275_LatLon0.15_PT027H.grib2 2026-04-11 16:16 647K
20260411T12Z_MSC_GDPS_GeopotentialHeight_IsbL-0300_LatLon0.15_PT027H.grib2 2026-04-11 16:16 644K
20260411T12Z_MSC_GDPS_GeopotentialHeight_IsbL-0350_LatLon0.15_PT027H.grib2 2026-04-11 16:16 631K
20260411T12Z_MSC_GDPS_GeopotentialHeight_IsbL-0400_LatLon0.15_PT027H.grib2 2026-04-11 16:16 622K
20260411T12Z_MSC_GDPS_GeopotentialHeight_IsbL-0450_LatLon0.15_PT027H.grib2 2026-04-11 16:16 543K
20260411T12Z_MSC_GDPS_GeopotentialHeight_IsbL-0500_LatLon0.15_PT027H.grib2 2026-04-11 16:16 533K
20260411T12Z_MSC_GDPS_GeopotentialHeight_IsbL-0550_LatLon0.15_PT027H.grib2 2026-04-11 16:16 695K
20260411T12Z_MSC_GDPS_GeopotentialHeight_IsbL-0600_LatLon0.15_PT027H.grib2 2026-04-11 16:16 688K
20260411T12Z_MSC_GDPS_GeopotentialHeight_IsbL-0650_LatLon0.15_PT027H.grib2 2026-04-11 16:16 689K
20260411T12Z_MSC_GDPS_GeopotentialHeight_IsbL-0700_LatLon0.15_PT027H.grib2 2026-04-11 16:16 686K
20260411T12Z_MSC_GDPS_GeopotentialHeight_IsbL-0750_LatLon0.15_PT027H.grib2 2026-04-11 16:16 691K
20260411T12Z_MSC_GDPS_GeopotentialHeight_IsbL-0800_LatLon0.15_PT027H.grib2 2026-04-11 16:16 705K
20260411T12Z_MSC_GDPS_GeopotentialHeight_IsbL-0850_LatLon0.15_PT027H.grib2 2026-04-11 16:16 710K
20260411T12Z_MSC_GDPS_GeopotentialHeight_IsbL-0875_LatLon0.15_PT027H.grib2 2026-04-11 16:16 715K
20260411T12Z_MSC_GDPS_GeopotentialHeight_IsbL-0900_LatLon0.15_PT027H.grib2 2026-04-11 16:16 725K
20260411T12Z_MSC_GDPS_GeopotentialHeight_IsbL-0925_LatLon0.15_PT027H.grib2 2026-04-11 16:16 732K
20260411T12Z_MSC_GDPS_GeopotentialHeight_IsbL-0950_LatLon0.15_PT027H.grib2 2026-04-11 16:16 737K
20260411T12Z_MSC_GDPS_GeopotentialHeight_IsbL-0970_LatLon0.15_PT027H.grib2 2026-04-11 16:16 749K
20260411T12Z_MSC_GDPS_GeopotentialHeight_IsbL-0985_LatLon0.15_PT027H.grib2 2026-04-11 16:16 764K
20260411T12Z_MSC_GDPS_GeopotentialHeight_IsbL-1000_LatLon0.15_PT027H.grib2 2026-04-11 16:16 785K
20260411T12Z_MSC_GDPS_GeopotentialHeight_IsbL-1015_LatLon0.15_PT027H.grib2 2026-04-11 16:16 806K
20260411T12Z_MSC_GDPS_Humidex_Sfc_LatLon0.15_PT027H.grib2 2026-04-11 16:16 5.3M
20260411T12Z_MSC_GDPS_IcePellets-Accum1h_Sfc_LatLon0.15_PT027H.grib2 2026-04-11 16:16 10K
20260411T12Z_MSC_GDPS_IcePellets-Accum3h_Sfc_LatLon0.15_PT027H.grib2 2026-04-11 16:16 12K
20260411T12Z_MSC_GDPS_IcePellets-Accum_Sfc_LatLon0.15_PT027H.grib2 2026-04-11 16:16 50K
20260411T12Z_MSC_GDPS_KIndex_Sfc_LatLon0.15_PT027H.grib2 2026-04-11 16:16 6.5M
20260411T12Z_MSC_GDPS_LatentHeatNetFlux_Sfc_LatLon0.15_PT027H.grib2 2026-04-11 16:16 525K
20260411T12Z_MSC_GDPS_LiftedIndex-MU-VT_IsbL-0500_LatLon0.15_PT027H.grib2 2026-04-11 16:16 5.4M
20260411T12Z_MSC_GDPS_NetLongwaveRadiationFlux-Accum_Sfc_LatLon0.15_PT027H.grib2 2026-04-11 16:16 1.2M
20260411T12Z_MSC_GDPS_NetShortwaveRadiationFlux-Accum_Sfc_LatLon0.15_PT027H.grib2 2026-04-11 16:16 1.2M
20260411T12Z_MSC_GDPS_O3MixingRatio_LatLon0.15_PT027H.grib2 2026-04-11 17:05 2.1M
20260411T12Z_MSC_GDPS_O3_EAtm_LatLon0.15_PT027H.grib2 2026-04-11 17:05 2.1M
20260411T12Z_MSC_GDPS_PlanetaryBoundaryLayerHeight_Sfc_LatLon0.15_PT027H.grib2 2026-04-11 16:16 2.5M
20260411T12Z_MSC_GDPS_Precip-Accum1h_Sfc_LatLon0.15_PT027H.grib2 2026-04-11 16:16 3.2M
20260411T12Z_MSC_GDPS_Precip-Accum3h_Sfc_LatLon0.15_PT027H.grib2 2026-04-11 16:16 3.5M
20260411T12Z_MSC_GDPS_Precip-Accum_Sfc_LatLon0.15_PT027H.grib2 2026-04-11 16:16 4.4M
20260411T12Z_MSC_GDPS_PrecipRate_Sfc_LatLon0.15_PT027H.grib2 2026-04-11 16:16 3.1M
20260411T12Z_MSC_GDPS_PrecipType-Instant_Sfc_LatLon0.15_PT027H.grib2 2026-04-11 16:16 1.5M
20260411T12Z_MSC_GDPS_Pressure_MSL_LatLon0.15_PT027H.grib2 2026-04-11 16:16 720K
20260411T12Z_MSC_GDPS_Pressure_PVU-1.5_LatLon0.15_PT027H.grib2 2026-04-11 16:16 5.8M
20260411T12Z_MSC_GDPS_Pressure_PVU-1_LatLon0.15_PT027H.grib2 2026-04-11 16:16 6.0M
20260411T12Z_MSC_GDPS_Pressure_PVU-2_LatLon0.15_PT027H.grib2 2026-04-11 16:16 5.6M
20260411T12Z_MSC_GDPS_Pressure_Sfc_LatLon0.15_PT027H.grib2 2026-04-11 16:16 1.1M
20260411T12Z_MSC_GDPS_RadiativeTemp_Sfc_LatLon0.15_PT027H.grib2 2026-04-11 16:16 663K
20260411T12Z_MSC_GDPS_Rain-Accum1h_Sfc_LatLon0.15_PT027H.grib2 2026-04-11 16:16 1.6M
20260411T12Z_MSC_GDPS_Rain-Accum3h_Sfc_LatLon0.15_PT027H.grib2 2026-04-11 16:16 1.8M
20260411T12Z_MSC_GDPS_Rain-Accum_Sfc_LatLon0.15_PT027H.grib2 2026-04-11 16:16 3.2M
20260411T12Z_MSC_GDPS_RelativeHumidity_AGL-2m_LatLon0.15_PT027H.grib2 2026-04-11 16:16 1.0M
20260411T12Z_MSC_GDPS_RelativeHumidity_IsbL-0010_LatLon0.15_PT027H.grib2 2026-04-11 16:16 246K
20260411T12Z_MSC_GDPS_RelativeHumidity_IsbL-0020_LatLon0.15_PT027H.grib2 2026-04-11 16:16 400K
20260411T12Z_MSC_GDPS_RelativeHumidity_IsbL-0030_LatLon0.15_PT027H.grib2 2026-04-11 16:16 533K
20260411T12Z_MSC_GDPS_RelativeHumidity_IsbL-0050_LatLon0.15_PT027H.grib2 2026-04-11 16:16 326K
20260411T12Z_MSC_GDPS_RelativeHumidity_IsbL-0100_LatLon0.15_PT027H.grib2 2026-04-11 16:16 499K
20260411T12Z_MSC_GDPS_RelativeHumidity_IsbL-0150_LatLon0.15_PT027H.grib2 2026-04-11 16:16 652K
20260411T12Z_MSC_GDPS_RelativeHumidity_IsbL-0175_LatLon0.15_PT027H.grib2 2026-04-11 16:16 568K
20260411T12Z_MSC_GDPS_RelativeHumidity_IsbL-0200_LatLon0.15_PT027H.grib2 2026-04-11 16:16 671K
20260411T12Z_MSC_GDPS_RelativeHumidity_IsbL-0225_LatLon0.15_PT027H.grib2 2026-04-11 16:16 761K
20260411T12Z_MSC_GDPS_RelativeHumidity_IsbL-0250_LatLon0.15_PT027H.grib2 2026-04-11 16:16 843K
20260411T12Z_MSC_GDPS_RelativeHumidity_IsbL-0275_LatLon0.15_PT027H.grib2 2026-04-11 16:16 871K
20260411T12Z_MSC_GDPS_RelativeHumidity_IsbL-0300_LatLon0.15_PT027H.grib2 2026-04-11 16:16 921K
20260411T12Z_MSC_GDPS_RelativeHumidity_IsbL-0350_LatLon0.15_PT027H.grib2 2026-04-11 16:16 945K
20260411T12Z_MSC_GDPS_RelativeHumidity_IsbL-0400_LatLon0.15_PT027H.grib2 2026-04-11 16:16 971K
20260411T12Z_MSC_GDPS_RelativeHumidity_IsbL-0450_LatLon0.15_PT027H.grib2 2026-04-11 16:16 1.0M
20260411T12Z_MSC_GDPS_RelativeHumidity_IsbL-0500_LatLon0.15_PT027H.grib2 2026-04-11 16:16 1.0M
20260411T12Z_MSC_GDPS_RelativeHumidity_IsbL-0550_LatLon0.15_PT027H.grib2 2026-04-11 16:16 1.1M
20260411T12Z_MSC_GDPS_RelativeHumidity_IsbL-0600_LatLon0.15_PT027H.grib2 2026-04-11 16:16 1.1M
20260411T12Z_MSC_GDPS_RelativeHumidity_IsbL-0650_LatLon0.15_PT027H.grib2 2026-04-11 16:16 1.0M
20260411T12Z_MSC_GDPS_RelativeHumidity_IsbL-0700_LatLon0.15_PT027H.grib2 2026-04-11 16:16 1.1M
20260411T12Z_MSC_GDPS_RelativeHumidity_IsbL-0750_LatLon0.15_PT027H.grib2 2026-04-11 16:16 1.2M
20260411T12Z_MSC_GDPS_RelativeHumidity_IsbL-0800_LatLon0.15_PT027H.grib2 2026-04-11 16:16 1.2M
20260411T12Z_MSC_GDPS_RelativeHumidity_IsbL-0850_LatLon0.15_PT027H.grib2 2026-04-11 16:16 1.3M
20260411T12Z_MSC_GDPS_RelativeHumidity_IsbL-0875_LatLon0.15_PT027H.grib2 2026-04-11 16:16 1.3M
20260411T12Z_MSC_GDPS_RelativeHumidity_IsbL-0900_LatLon0.15_PT027H.grib2 2026-04-11 16:16 1.2M
20260411T12Z_MSC_GDPS_RelativeHumidity_IsbL-0925_LatLon0.15_PT027H.grib2 2026-04-11 16:16 1.2M
20260411T12Z_MSC_GDPS_RelativeHumidity_IsbL-0950_LatLon0.15_PT027H.grib2 2026-04-11 16:16 1.2M
20260411T12Z_MSC_GDPS_RelativeHumidity_IsbL-0970_LatLon0.15_PT027H.grib2 2026-04-11 16:16 1.2M
20260411T12Z_MSC_GDPS_RelativeHumidity_IsbL-0985_LatLon0.15_PT027H.grib2 2026-04-11 16:16 1.1M
20260411T12Z_MSC_GDPS_RelativeHumidity_IsbL-1000_LatLon0.15_PT027H.grib2 2026-04-11 16:16 1.1M
20260411T12Z_MSC_GDPS_RelativeHumidity_IsbL-1015_LatLon0.15_PT027H.grib2 2026-04-11 16:16 1.0M
20260411T12Z_MSC_GDPS_RelativeVorticity_IsbL-0200_LatLon0.15_PT027H.grib2 2026-04-11 16:16 1.2M
20260411T12Z_MSC_GDPS_RelativeVorticity_IsbL-0250_LatLon0.15_PT027H.grib2 2026-04-11 16:16 1.3M
20260411T12Z_MSC_GDPS_RelativeVorticity_IsbL-0500_LatLon0.15_PT027H.grib2 2026-04-11 16:16 1.4M
20260411T12Z_MSC_GDPS_RelativeVorticity_IsbL-0700_LatLon0.15_PT027H.grib2 2026-04-11 16:16 1.6M
20260411T12Z_MSC_GDPS_RelativeVorticity_IsbL-0850_LatLon0.15_PT027H.grib2 2026-04-11 16:16 1.6M
20260411T12Z_MSC_GDPS_Runoff-Accum_Sfc_LatLon0.15_PT027H.grib2 2026-04-11 16:16 102K
20260411T12Z_MSC_GDPS_SensibleHeatNetFlux_Sfc_LatLon0.15_PT027H.grib2 2026-04-11 16:16 630K
20260411T12Z_MSC_GDPS_ShowalterIndex_IsbL-0500_LatLon0.15_PT027H.grib2 2026-04-11 16:16 6.2M
20260411T12Z_MSC_GDPS_Snow-Accum1h_Sfc_LatLon0.15_PT027H.grib2 2026-04-11 16:16 1.0M
20260411T12Z_MSC_GDPS_Snow-Accum3h_Sfc_LatLon0.15_PT027H.grib2 2026-04-11 16:16 1.0M
20260411T12Z_MSC_GDPS_Snow-Accum_Sfc_LatLon0.15_PT027H.grib2 2026-04-11 16:16 1.8M
20260411T12Z_MSC_GDPS_SnowDensity_Sfc_LatLon0.15_PT027H.grib2 2026-04-11 16:16 265K
20260411T12Z_MSC_GDPS_SnowDepth_Sfc_LatLon0.15_PT027H.grib2 2026-04-11 16:16 1.8M
20260411T12Z_MSC_GDPS_SoilTemp_DBS-0to10cm_LatLon0.15_PT027H.grib2 2026-04-11 16:16 497K
20260411T12Z_MSC_GDPS_SoilTemp_Sfc_LatLon0.15_PT027H.grib2 2026-04-11 16:16 572K
20260411T12Z_MSC_GDPS_SoilVolumetricIceContent_Sfc_LatLon0.15_PT027H.grib2 2026-04-11 16:16 229K
20260411T12Z_MSC_GDPS_SoilVolumetricWaterContent_DBS-0to10cm_LatLon0.15_PT027H.grib2 2026-04-11 16:16 550K
20260411T12Z_MSC_GDPS_SoilVolumetricWaterContent_DBS-0to1cm_LatLon0.15_PT027H.grib2 2026-04-11 16:16 649K
20260411T12Z_MSC_GDPS_SpecificHumidity_AGL-120m_LatLon0.15_PT027H.grib2 2026-04-11 16:16 1.1M
20260411T12Z_MSC_GDPS_SpecificHumidity_AGL-2m_LatLon0.15_PT027H.grib2 2026-04-11 16:16 1.2M
20260411T12Z_MSC_GDPS_SpecificHumidity_AGL-40m_LatLon0.15_PT027H.grib2 2026-04-11 16:16 1.1M
20260411T12Z_MSC_GDPS_SpecificHumidity_AGL-80m_LatLon0.15_PT027H.grib2 2026-04-11 16:16 1.1M
20260411T12Z_MSC_GDPS_SpecificHumidity_IsbL-0001_LatLon0.15_PT027H.grib2 2026-04-11 16:16 1.2M
20260411T12Z_MSC_GDPS_SpecificHumidity_IsbL-0005_LatLon0.15_PT027H.grib2 2026-04-11 16:16 1.2M
20260411T12Z_MSC_GDPS_SpecificHumidity_IsbL-0010_LatLon0.15_PT027H.grib2 2026-04-11 16:16 1.3M
20260411T12Z_MSC_GDPS_SpecificHumidity_IsbL-0020_LatLon0.15_PT027H.grib2 2026-04-11 16:16 1.4M
20260411T12Z_MSC_GDPS_SpecificHumidity_IsbL-0030_LatLon0.15_PT027H.grib2 2026-04-11 16:16 1.4M
20260411T12Z_MSC_GDPS_SpecificHumidity_IsbL-0050_LatLon0.15_PT027H.grib2 2026-04-11 16:16 1.4M
20260411T12Z_MSC_GDPS_SpecificHumidity_IsbL-0100_LatLon0.15_PT027H.grib2 2026-04-11 16:16 1.3M
20260411T12Z_MSC_GDPS_SpecificHumidity_IsbL-0150_LatLon0.15_PT027H.grib2 2026-04-11 16:16 1.3M
20260411T12Z_MSC_GDPS_SpecificHumidity_IsbL-0175_LatLon0.15_PT027H.grib2 2026-04-11 16:16 1.3M
20260411T12Z_MSC_GDPS_SpecificHumidity_IsbL-0200_LatLon0.15_PT027H.grib2 2026-04-11 16:16 1.3M
20260411T12Z_MSC_GDPS_SpecificHumidity_IsbL-0225_LatLon0.15_PT027H.grib2 2026-04-11 16:16 1.3M
20260411T12Z_MSC_GDPS_SpecificHumidity_IsbL-0250_LatLon0.15_PT027H.grib2 2026-04-11 16:16 1.2M
20260411T12Z_MSC_GDPS_SpecificHumidity_IsbL-0275_LatLon0.15_PT027H.grib2 2026-04-11 16:16 1.1M
20260411T12Z_MSC_GDPS_SpecificHumidity_IsbL-0300_LatLon0.15_PT027H.grib2 2026-04-11 16:16 1.2M
20260411T12Z_MSC_GDPS_SpecificHumidity_IsbL-0350_LatLon0.15_PT027H.grib2 2026-04-11 16:16 1.2M
20260411T12Z_MSC_GDPS_SpecificHumidity_IsbL-0400_LatLon0.15_PT027H.grib2 2026-04-11 16:16 1.4M
20260411T12Z_MSC_GDPS_SpecificHumidity_IsbL-0450_LatLon0.15_PT027H.grib2 2026-04-11 16:16 1.3M
20260411T12Z_MSC_GDPS_SpecificHumidity_IsbL-0500_LatLon0.15_PT027H.grib2 2026-04-11 16:16 1.5M
20260411T12Z_MSC_GDPS_SpecificHumidity_IsbL-0550_LatLon0.15_PT027H.grib2 2026-04-11 16:16 1.6M
20260411T12Z_MSC_GDPS_SpecificHumidity_IsbL-0600_LatLon0.15_PT027H.grib2 2026-04-11 16:16 1.4M
20260411T12Z_MSC_GDPS_SpecificHumidity_IsbL-0650_LatLon0.15_PT027H.grib2 2026-04-11 16:16 1.5M
20260411T12Z_MSC_GDPS_SpecificHumidity_IsbL-0700_LatLon0.15_PT027H.grib2 2026-04-11 16:16 1.6M
20260411T12Z_MSC_GDPS_SpecificHumidity_IsbL-0750_LatLon0.15_PT027H.grib2 2026-04-11 16:16 1.7M
20260411T12Z_MSC_GDPS_SpecificHumidity_IsbL-0800_LatLon0.15_PT027H.grib2 2026-04-11 16:16 1.8M
20260411T12Z_MSC_GDPS_SpecificHumidity_IsbL-0850_LatLon0.15_PT027H.grib2 2026-04-11 16:16 1.9M
20260411T12Z_MSC_GDPS_SpecificHumidity_IsbL-0875_LatLon0.15_PT027H.grib2 2026-04-11 16:16 1.9M
20260411T12Z_MSC_GDPS_SpecificHumidity_IsbL-0900_LatLon0.15_PT027H.grib2 2026-04-11 16:16 1.6M
20260411T12Z_MSC_GDPS_SpecificHumidity_IsbL-0925_LatLon0.15_PT027H.grib2 2026-04-11 16:16 1.6M
20260411T12Z_MSC_GDPS_SpecificHumidity_IsbL-0950_LatLon0.15_PT027H.grib2 2026-04-11 16:16 1.5M
20260411T12Z_MSC_GDPS_SpecificHumidity_IsbL-0970_LatLon0.15_PT027H.grib2 2026-04-11 16:16 1.5M
20260411T12Z_MSC_GDPS_SpecificHumidity_IsbL-0985_LatLon0.15_PT027H.grib2 2026-04-11 16:16 1.5M
20260411T12Z_MSC_GDPS_SpecificHumidity_IsbL-1000_LatLon0.15_PT027H.grib2 2026-04-11 16:16 1.5M
20260411T12Z_MSC_GDPS_SpecificHumidity_IsbL-1015_LatLon0.15_PT027H.grib2 2026-04-11 16:16 1.4M
20260411T12Z_MSC_GDPS_SpecificHumidity_Sfc_LatLon0.15_PT027H.grib2 2026-04-11 16:16 659K
20260411T12Z_MSC_GDPS_Thickness_IsbL-0850to0700_LatLon0.15_PT027H.grib2 2026-04-11 16:16 470K
20260411T12Z_MSC_GDPS_Thickness_IsbL-1000to0500_LatLon0.15_PT027H.grib2 2026-04-11 16:16 334K
20260411T12Z_MSC_GDPS_Thickness_IsbL-1000to0850_LatLon0.15_PT027H.grib2 2026-04-11 16:16 485K
20260411T12Z_MSC_GDPS_TotalCloudCover_Sfc_LatLon0.15_PT027H.grib2 2026-04-11 16:16 815K
20260411T12Z_MSC_GDPS_TotalTotalsIndex_Sfc_LatLon0.15_PT027H.grib2 2026-04-11 16:16 6.2M
20260411T12Z_MSC_GDPS_UVIndex-ClearSky_Sfc_LatLon0.15_PT027H.grib2 2026-04-11 17:05 1.0M
20260411T12Z_MSC_GDPS_UVIndex_Sfc_LatLon0.15_PT027H.grib2 2026-04-11 17:05 1.4M
20260411T12Z_MSC_GDPS_UpwardLongwaveRadiationFlux_NTAtm_LatLon0.15_PT027H.grib2 2026-04-11 16:16 819K
20260411T12Z_MSC_GDPS_VerticalVelocity_IsbL-0200_LatLon0.15_PT027H.grib2 2026-04-11 16:16 943K
20260411T12Z_MSC_GDPS_VerticalVelocity_IsbL-0250_LatLon0.15_PT027H.grib2 2026-04-11 16:16 1.0M
20260411T12Z_MSC_GDPS_VerticalVelocity_IsbL-0500_LatLon0.15_PT027H.grib2 2026-04-11 16:16 1.3M
20260411T12Z_MSC_GDPS_VerticalVelocity_IsbL-0600_LatLon0.15_PT027H.grib2 2026-04-11 16:16 1.1M
20260411T12Z_MSC_GDPS_VerticalVelocity_IsbL-0700_LatLon0.15_PT027H.grib2 2026-04-11 16:16 1.1M
20260411T12Z_MSC_GDPS_VerticalVelocity_IsbL-0850_LatLon0.15_PT027H.grib2 2026-04-11 16:16 1.6M
20260411T12Z_MSC_GDPS_WindChill_Sfc_LatLon0.15_PT027H.grib2 2026-04-11 16:16 5.4M
20260411T12Z_MSC_GDPS_WindDir_AGL-10m_LatLon0.15_PT027H.grib2 2026-04-11 16:16 1.3M
20260411T12Z_MSC_GDPS_WindDir_AGL-120m_LatLon0.15_PT027H.grib2 2026-04-11 16:16 1.3M
20260411T12Z_MSC_GDPS_WindDir_AGL-40m_LatLon0.15_PT027H.grib2 2026-04-11 16:16 1.4M
20260411T12Z_MSC_GDPS_WindDir_AGL-80m_LatLon0.15_PT027H.grib2 2026-04-11 16:16 1.4M
20260411T12Z_MSC_GDPS_WindDir_IsbL-0001_LatLon0.15_PT027H.grib2 2026-04-11 16:16 626K
20260411T12Z_MSC_GDPS_WindDir_IsbL-0005_LatLon0.15_PT027H.grib2 2026-04-11 16:16 775K
20260411T12Z_MSC_GDPS_WindDir_IsbL-0010_LatLon0.15_PT027H.grib2 2026-04-11 16:16 865K
20260411T12Z_MSC_GDPS_WindDir_IsbL-0020_LatLon0.15_PT027H.grib2 2026-04-11 16:16 943K
20260411T12Z_MSC_GDPS_WindDir_IsbL-0030_LatLon0.15_PT027H.grib2 2026-04-11 16:16 893K
20260411T12Z_MSC_GDPS_WindDir_IsbL-0050_LatLon0.15_PT027H.grib2 2026-04-11 16:16 952K
20260411T12Z_MSC_GDPS_WindDir_IsbL-0100_LatLon0.15_PT027H.grib2 2026-04-11 16:16 1.0M
20260411T12Z_MSC_GDPS_WindDir_IsbL-0150_LatLon0.15_PT027H.grib2 2026-04-11 16:16 1.0M
20260411T12Z_MSC_GDPS_WindDir_IsbL-0175_LatLon0.15_PT027H.grib2 2026-04-11 16:16 1.0M
20260411T12Z_MSC_GDPS_WindDir_IsbL-0200_LatLon0.15_PT027H.grib2 2026-04-11 16:16 1.1M
20260411T12Z_MSC_GDPS_WindDir_IsbL-0225_LatLon0.15_PT027H.grib2 2026-04-11 16:16 1.1M
20260411T12Z_MSC_GDPS_WindDir_IsbL-0250_LatLon0.15_PT027H.grib2 2026-04-11 16:16 1.1M
20260411T12Z_MSC_GDPS_WindDir_IsbL-0275_LatLon0.15_PT027H.grib2 2026-04-11 16:16 1.2M
20260411T12Z_MSC_GDPS_WindDir_IsbL-0300_LatLon0.15_PT027H.grib2 2026-04-11 16:16 1.2M
20260411T12Z_MSC_GDPS_WindDir_IsbL-0350_LatLon0.15_PT027H.grib2 2026-04-11 16:16 1.2M
20260411T12Z_MSC_GDPS_WindDir_IsbL-0400_LatLon0.15_PT027H.grib2 2026-04-11 16:16 1.3M
20260411T12Z_MSC_GDPS_WindDir_IsbL-0450_LatLon0.15_PT027H.grib2 2026-04-11 16:16 1.3M
20260411T12Z_MSC_GDPS_WindDir_IsbL-0500_LatLon0.15_PT027H.grib2 2026-04-11 16:16 1.3M
20260411T12Z_MSC_GDPS_WindDir_IsbL-0550_LatLon0.15_PT027H.grib2 2026-04-11 16:16 1.4M
20260411T12Z_MSC_GDPS_WindDir_IsbL-0600_LatLon0.15_PT027H.grib2 2026-04-11 16:16 1.4M
20260411T12Z_MSC_GDPS_WindDir_IsbL-0650_LatLon0.15_PT027H.grib2 2026-04-11 16:16 1.5M
20260411T12Z_MSC_GDPS_WindDir_IsbL-0700_LatLon0.15_PT027H.grib2 2026-04-11 16:16 1.6M
20260411T12Z_MSC_GDPS_WindDir_IsbL-0750_LatLon0.15_PT027H.grib2 2026-04-11 16:16 1.7M
20260411T12Z_MSC_GDPS_WindDir_IsbL-0800_LatLon0.15_PT027H.grib2 2026-04-11 16:16 1.8M
20260411T12Z_MSC_GDPS_WindDir_IsbL-0850_LatLon0.15_PT027H.grib2 2026-04-11 16:16 1.9M
20260411T12Z_MSC_GDPS_WindDir_IsbL-0875_LatLon0.15_PT027H.grib2 2026-04-11 16:16 1.9M
20260411T12Z_MSC_GDPS_WindDir_IsbL-0900_LatLon0.15_PT027H.grib2 2026-04-11 16:16 2.0M
20260411T12Z_MSC_GDPS_WindDir_IsbL-0925_LatLon0.15_PT027H.grib2 2026-04-11 16:16 2.0M
20260411T12Z_MSC_GDPS_WindDir_IsbL-0950_LatLon0.15_PT027H.grib2 2026-04-11 16:16 2.0M
20260411T12Z_MSC_GDPS_WindDir_IsbL-0970_LatLon0.15_PT027H.grib2 2026-04-11 16:16 2.0M
20260411T12Z_MSC_GDPS_WindDir_IsbL-0985_LatLon0.15_PT027H.grib2 2026-04-11 16:16 2.0M
20260411T12Z_MSC_GDPS_WindDir_IsbL-1000_LatLon0.15_PT027H.grib2 2026-04-11 16:16 2.0M
20260411T12Z_MSC_GDPS_WindDir_IsbL-1015_LatLon0.15_PT027H.grib2 2026-04-11 16:16 2.0M
20260411T12Z_MSC_GDPS_WindGust-Max_AGL-10m_LatLon0.15_PT027H.grib2 2026-04-11 16:16 2.2M
20260411T12Z_MSC_GDPS_WindGust-Min_AGL-10m_LatLon0.15_PT027H.grib2 2026-04-11 16:16 2.1M
20260411T12Z_MSC_GDPS_WindGust_AGL-10m_LatLon0.15_PT027H.grib2 2026-04-11 16:16 2.1M
20260411T12Z_MSC_GDPS_WindSpeed_AGL-10m_LatLon0.15_PT027H.grib2 2026-04-11 16:16 1.1M
20260411T12Z_MSC_GDPS_WindSpeed_AGL-120m_LatLon0.15_PT027H.grib2 2026-04-11 16:16 1.2M
20260411T12Z_MSC_GDPS_WindSpeed_AGL-40m_LatLon0.15_PT027H.grib2 2026-04-11 16:16 1.2M
20260411T12Z_MSC_GDPS_WindSpeed_AGL-80m_LatLon0.15_PT027H.grib2 2026-04-11 16:16 1.2M
20260411T12Z_MSC_GDPS_WindSpeed_IsbL-0001_LatLon0.15_PT027H.grib2 2026-04-11 16:16 635K
20260411T12Z_MSC_GDPS_WindSpeed_IsbL-0005_LatLon0.15_PT027H.grib2 2026-04-11 16:16 612K
20260411T12Z_MSC_GDPS_WindSpeed_IsbL-0010_LatLon0.15_PT027H.grib2 2026-04-11 16:16 636K
20260411T12Z_MSC_GDPS_WindSpeed_IsbL-0020_LatLon0.15_PT027H.grib2 2026-04-11 16:16 881K
20260411T12Z_MSC_GDPS_WindSpeed_IsbL-0030_LatLon0.15_PT027H.grib2 2026-04-11 16:16 866K
20260411T12Z_MSC_GDPS_WindSpeed_IsbL-0050_LatLon0.15_PT027H.grib2 2026-04-11 16:16 917K
20260411T12Z_MSC_GDPS_WindSpeed_IsbL-0100_LatLon0.15_PT027H.grib2 2026-04-11 16:16 1.1M
20260411T12Z_MSC_GDPS_WindSpeed_IsbL-0150_LatLon0.15_PT027H.grib2 2026-04-11 16:16 943K
20260411T12Z_MSC_GDPS_WindSpeed_IsbL-0175_LatLon0.15_PT027H.grib2 2026-04-11 16:16 1.0M
20260411T12Z_MSC_GDPS_WindSpeed_IsbL-0200_LatLon0.15_PT027H.grib2 2026-04-11 16:16 1.1M
20260411T12Z_MSC_GDPS_WindSpeed_IsbL-0225_LatLon0.15_PT027H.grib2 2026-04-11 16:16 866K
20260411T12Z_MSC_GDPS_WindSpeed_IsbL-0250_LatLon0.15_PT027H.grib2 2026-04-11 16:16 1.1M
20260411T12Z_MSC_GDPS_WindSpeed_IsbL-0275_LatLon0.15_PT027H.grib2 2026-04-11 16:16 1.1M
20260411T12Z_MSC_GDPS_WindSpeed_IsbL-0300_LatLon0.15_PT027H.grib2 2026-04-11 16:16 1.1M
20260411T12Z_MSC_GDPS_WindSpeed_IsbL-0350_LatLon0.15_PT027H.grib2 2026-04-11 16:16 1.1M
20260411T12Z_MSC_GDPS_WindSpeed_IsbL-0400_LatLon0.15_PT027H.grib2 2026-04-11 16:16 1.1M
20260411T12Z_MSC_GDPS_WindSpeed_IsbL-0450_LatLon0.15_PT027H.grib2 2026-04-11 16:16 1.1M
20260411T12Z_MSC_GDPS_WindSpeed_IsbL-0500_LatLon0.15_PT027H.grib2 2026-04-11 16:16 1.1M
20260411T12Z_MSC_GDPS_WindSpeed_IsbL-0550_LatLon0.15_PT027H.grib2 2026-04-11 16:16 1.1M
20260411T12Z_MSC_GDPS_WindSpeed_IsbL-0600_LatLon0.15_PT027H.grib2 2026-04-11 16:16 1.1M
20260411T12Z_MSC_GDPS_WindSpeed_IsbL-0650_LatLon0.15_PT027H.grib2 2026-04-11 16:16 1.2M
20260411T12Z_MSC_GDPS_WindSpeed_IsbL-0700_LatLon0.15_PT027H.grib2 2026-04-11 16:16 1.5M
20260411T12Z_MSC_GDPS_WindSpeed_IsbL-0750_LatLon0.15_PT027H.grib2 2026-04-11 16:16 1.6M
20260411T12Z_MSC_GDPS_WindSpeed_IsbL-0800_LatLon0.15_PT027H.grib2 2026-04-11 16:16 1.6M
20260411T12Z_MSC_GDPS_WindSpeed_IsbL-0850_LatLon0.15_PT027H.grib2 2026-04-11 16:16 1.7M
20260411T12Z_MSC_GDPS_WindSpeed_IsbL-0875_LatLon0.15_PT027H.grib2 2026-04-11 16:16 1.8M
20260411T12Z_MSC_GDPS_WindSpeed_IsbL-0900_LatLon0.15_PT027H.grib2 2026-04-11 16:16 1.8M
20260411T12Z_MSC_GDPS_WindSpeed_IsbL-0925_LatLon0.15_PT027H.grib2 2026-04-11 16:16 1.8M
20260411T12Z_MSC_GDPS_WindSpeed_IsbL-0950_LatLon0.15_PT027H.grib2 2026-04-11 16:16 1.9M
20260411T12Z_MSC_GDPS_WindSpeed_IsbL-0970_LatLon0.15_PT027H.grib2 2026-04-11 16:16 1.9M
20260411T12Z_MSC_GDPS_WindSpeed_IsbL-0985_LatLon0.15_PT027H.grib2 2026-04-11 16:16 1.9M
20260411T12Z_MSC_GDPS_WindSpeed_IsbL-1000_LatLon0.15_PT027H.grib2 2026-04-11 16:16 1.9M
20260411T12Z_MSC_GDPS_WindSpeed_IsbL-1015_LatLon0.15_PT027H.grib2 2026-04-11 16:16 1.8M
20260411T12Z_MSC_GDPS_WindU_AGL-10m_LatLon0.15_PT027H.grib2 2026-04-11 16:16 1.3M
20260411T12Z_MSC_GDPS_WindU_AGL-120m_LatLon0.15_PT027H.grib2 2026-04-11 16:16 1.0M
20260411T12Z_MSC_GDPS_WindU_AGL-40m_LatLon0.15_PT027H.grib2 2026-04-11 16:16 965K
20260411T12Z_MSC_GDPS_WindU_AGL-80m_LatLon0.15_PT027H.grib2 2026-04-11 16:16 1.0M
20260411T12Z_MSC_GDPS_WindU_IsbL-0001_LatLon0.15_PT027H.grib2 2026-04-11 16:16 636K
20260411T12Z_MSC_GDPS_WindU_IsbL-0005_LatLon0.15_PT027H.grib2 2026-04-11 16:16 691K
20260411T12Z_MSC_GDPS_WindU_IsbL-0010_LatLon0.15_PT027H.grib2 2026-04-11 16:16 707K
20260411T12Z_MSC_GDPS_WindU_IsbL-0020_LatLon0.15_PT027H.grib2 2026-04-11 16:16 749K
20260411T12Z_MSC_GDPS_WindU_IsbL-0030_LatLon0.15_PT027H.grib2 2026-04-11 16:16 742K
20260411T12Z_MSC_GDPS_WindU_IsbL-0050_LatLon0.15_PT027H.grib2 2026-04-11 16:16 709K
20260411T12Z_MSC_GDPS_WindU_IsbL-0100_LatLon0.15_PT027H.grib2 2026-04-11 16:16 933K
20260411T12Z_MSC_GDPS_WindU_IsbL-0150_LatLon0.15_PT027H.grib2 2026-04-11 16:16 1.0M
20260411T12Z_MSC_GDPS_WindU_IsbL-0175_LatLon0.15_PT027H.grib2 2026-04-11 16:16 817K
20260411T12Z_MSC_GDPS_WindU_IsbL-0200_LatLon0.15_PT027H.grib2 2026-04-11 16:16 847K
20260411T12Z_MSC_GDPS_WindU_IsbL-0225_LatLon0.15_PT027H.grib2 2026-04-11 16:16 916K
20260411T12Z_MSC_GDPS_WindU_IsbL-0250_LatLon0.15_PT027H.grib2 2026-04-11 16:16 919K
20260411T12Z_MSC_GDPS_WindU_IsbL-0275_LatLon0.15_PT027H.grib2 2026-04-11 16:16 887K
20260411T12Z_MSC_GDPS_WindU_IsbL-0300_LatLon0.15_PT027H.grib2 2026-04-11 16:16 878K
20260411T12Z_MSC_GDPS_WindU_IsbL-0350_LatLon0.15_PT027H.grib2 2026-04-11 16:16 895K
20260411T12Z_MSC_GDPS_WindU_IsbL-0400_LatLon0.15_PT027H.grib2 2026-04-11 16:16 896K
20260411T12Z_MSC_GDPS_WindU_IsbL-0450_LatLon0.15_PT027H.grib2 2026-04-11 16:16 897K
20260411T12Z_MSC_GDPS_WindU_IsbL-0500_LatLon0.15_PT027H.grib2 2026-04-11 16:16 1.1M
20260411T12Z_MSC_GDPS_WindU_IsbL-0550_LatLon0.15_PT027H.grib2 2026-04-11 16:16 1.1M
20260411T12Z_MSC_GDPS_WindU_IsbL-0600_LatLon0.15_PT027H.grib2 2026-04-11 16:16 1.1M
20260411T12Z_MSC_GDPS_WindU_IsbL-0650_LatLon0.15_PT027H.grib2 2026-04-11 16:16 1.2M
20260411T12Z_MSC_GDPS_WindU_IsbL-0700_LatLon0.15_PT027H.grib2 2026-04-11 16:16 1.2M
20260411T12Z_MSC_GDPS_WindU_IsbL-0750_LatLon0.15_PT027H.grib2 2026-04-11 16:16 1.3M
20260411T12Z_MSC_GDPS_WindU_IsbL-0800_LatLon0.15_PT027H.grib2 2026-04-11 16:16 1.4M
20260411T12Z_MSC_GDPS_WindU_IsbL-0850_LatLon0.15_PT027H.grib2 2026-04-11 16:16 1.4M
20260411T12Z_MSC_GDPS_WindU_IsbL-0875_LatLon0.15_PT027H.grib2 2026-04-11 16:16 1.4M
20260411T12Z_MSC_GDPS_WindU_IsbL-0900_LatLon0.15_PT027H.grib2 2026-04-11 16:16 1.5M
20260411T12Z_MSC_GDPS_WindU_IsbL-0925_LatLon0.15_PT027H.grib2 2026-04-11 16:16 1.5M
20260411T12Z_MSC_GDPS_WindU_IsbL-0950_LatLon0.15_PT027H.grib2 2026-04-11 16:16 1.4M
20260411T12Z_MSC_GDPS_WindU_IsbL-0970_LatLon0.15_PT027H.grib2 2026-04-11 16:16 1.4M
20260411T12Z_MSC_GDPS_WindU_IsbL-0985_LatLon0.15_PT027H.grib2 2026-04-11 16:16 1.4M
20260411T12Z_MSC_GDPS_WindU_IsbL-1000_LatLon0.15_PT027H.grib2 2026-04-11 16:16 1.4M
20260411T12Z_MSC_GDPS_WindU_IsbL-1015_LatLon0.15_PT027H.grib2 2026-04-11 16:16 1.3M
20260411T12Z_MSC_GDPS_WindV_AGL-10m_LatLon0.15_PT027H.grib2 2026-04-11 16:16 1.6M
20260411T12Z_MSC_GDPS_WindV_AGL-120m_LatLon0.15_PT027H.grib2 2026-04-11 16:16 967K
20260411T12Z_MSC_GDPS_WindV_AGL-40m_LatLon0.15_PT027H.grib2 2026-04-11 16:16 963K
20260411T12Z_MSC_GDPS_WindV_AGL-80m_LatLon0.15_PT027H.grib2 2026-04-11 16:16 968K
20260411T12Z_MSC_GDPS_WindV_IsbL-0001_LatLon0.15_PT027H.grib2 2026-04-11 16:16 545K
20260411T12Z_MSC_GDPS_WindV_IsbL-0005_LatLon0.15_PT027H.grib2 2026-04-11 16:16 779K
20260411T12Z_MSC_GDPS_WindV_IsbL-0010_LatLon0.15_PT027H.grib2 2026-04-11 16:16 811K
20260411T12Z_MSC_GDPS_WindV_IsbL-0020_LatLon0.15_PT027H.grib2 2026-04-11 16:16 950K
20260411T12Z_MSC_GDPS_WindV_IsbL-0030_LatLon0.15_PT027H.grib2 2026-04-11 16:16 862K
20260411T12Z_MSC_GDPS_WindV_IsbL-0050_LatLon0.15_PT027H.grib2 2026-04-11 16:16 915K
20260411T12Z_MSC_GDPS_WindV_IsbL-0100_LatLon0.15_PT027H.grib2 2026-04-11 16:16 1.1M
20260411T12Z_MSC_GDPS_WindV_IsbL-0150_LatLon0.15_PT027H.grib2 2026-04-11 16:16 1.0M
20260411T12Z_MSC_GDPS_WindV_IsbL-0175_LatLon0.15_PT027H.grib2 2026-04-11 16:16 1.0M
20260411T12Z_MSC_GDPS_WindV_IsbL-0200_LatLon0.15_PT027H.grib2 2026-04-11 16:16 846K
20260411T12Z_MSC_GDPS_WindV_IsbL-0225_LatLon0.15_PT027H.grib2 2026-04-11 16:16 916K
20260411T12Z_MSC_GDPS_WindV_IsbL-0250_LatLon0.15_PT027H.grib2 2026-04-11 16:16 917K
20260411T12Z_MSC_GDPS_WindV_IsbL-0275_LatLon0.15_PT027H.grib2 2026-04-11 16:16 940K
20260411T12Z_MSC_GDPS_WindV_IsbL-0300_LatLon0.15_PT027H.grib2 2026-04-11 16:16 931K
20260411T12Z_MSC_GDPS_WindV_IsbL-0350_LatLon0.15_PT027H.grib2 2026-04-11 16:16 887K
20260411T12Z_MSC_GDPS_WindV_IsbL-0400_LatLon0.15_PT027H.grib2 2026-04-11 16:16 888K
20260411T12Z_MSC_GDPS_WindV_IsbL-0450_LatLon0.15_PT027H.grib2 2026-04-11 16:16 1.1M
20260411T12Z_MSC_GDPS_WindV_IsbL-0500_LatLon0.15_PT027H.grib2 2026-04-11 16:16 1.1M
20260411T12Z_MSC_GDPS_WindV_IsbL-0550_LatLon0.15_PT027H.grib2 2026-04-11 16:16 1.1M
20260411T12Z_MSC_GDPS_WindV_IsbL-0600_LatLon0.15_PT027H.grib2 2026-04-11 16:16 1.1M
20260411T12Z_MSC_GDPS_WindV_IsbL-0650_LatLon0.15_PT027H.grib2 2026-04-11 16:16 1.2M
20260411T12Z_MSC_GDPS_WindV_IsbL-0700_LatLon0.15_PT027H.grib2 2026-04-11 16:16 1.2M
20260411T12Z_MSC_GDPS_WindV_IsbL-0750_LatLon0.15_PT027H.grib2 2026-04-11 16:16 1.3M
20260411T12Z_MSC_GDPS_WindV_IsbL-0800_LatLon0.15_PT027H.grib2 2026-04-11 16:16 1.3M
20260411T12Z_MSC_GDPS_WindV_IsbL-0850_LatLon0.15_PT027H.grib2 2026-04-11 16:16 1.4M
20260411T12Z_MSC_GDPS_WindV_IsbL-0875_LatLon0.15_PT027H.grib2 2026-04-11 16:16 1.4M
20260411T12Z_MSC_GDPS_WindV_IsbL-0900_LatLon0.15_PT027H.grib2 2026-04-11 16:16 1.4M
20260411T12Z_MSC_GDPS_WindV_IsbL-0925_LatLon0.15_PT027H.grib2 2026-04-11 16:16 1.4M
20260411T12Z_MSC_GDPS_WindV_IsbL-0950_LatLon0.15_PT027H.grib2 2026-04-11 16:16 1.4M
20260411T12Z_MSC_GDPS_WindV_IsbL-0970_LatLon0.15_PT027H.grib2 2026-04-11 16:16 1.4M
20260411T12Z_MSC_GDPS_WindV_IsbL-0985_LatLon0.15_PT027H.grib2 2026-04-11 16:16 1.4M
20260411T12Z_MSC_GDPS_WindV_IsbL-1000_LatLon0.15_PT027H.grib2 2026-04-11 16:16 1.4M
20260411T12Z_MSC_GDPS_WindV_IsbL-1015_LatLon0.15_PT027H.grib2 2026-04-11 16:16 1.6M